#timestamp,LO_Frequency,Hit,StdDev 
1598409835.3,286047015.1,P
1598409855.1,286047014.3,P
1598409856.0,286047014.3,P
1598409875.8,286047014.8,Y
1598409895.7,286046998.6,P
1598409915.5,286046998.8,N
1598409935.3,286046999.1,N
1598409955.2,286046999.2,N
1598409975.0,286046999.4,N
1598409975.9,286046999.4,N
1598409995.8,286046998.6,N
1598410015.6,286046998.5,N
1598410035.4,286047000.6,N
1598410055.3,286047000.9,N
1598410075.1,286047002.8,N
1598410095.9,286047002.8,N
1598410115.7,286047002.3,N
1598410135.5,286047002.2,N
1598410155.4,286047002.2,N
1598410175.2,286047000.4,N
1598410195.0,286047011.9,Y
1598410195.9,286047002.6,P
1598410215.8,286047000.4,N
1598410235.6,286047001.0,N
1598410255.5,286047001.0,N
1598410275.3,286047002.8,Y
1598410295.1,286047000.7,P
1598410315.9,286047000.6,N
1598410335.7,286046998.6,P
1598410355.5,286047000.8,N
1598410375.4,286046998.2,N
1598410395.2,286047000.6,N
1598410415.1,286046998.1,N
1598410416.0,286046998.1,N
1598410435.8,286047002.7,N
1598410455.6,286047000.9,N
1598410475.5,286047000.3,N
1598410495.3,286047000.2,N
1598410515.1,286046998.5,N
1598410535.9,286047000.6,N
1598410555.7,286047000.4,N
1598410575.6,286047000.3,N
1598410595.4,286047000.1,N
1598410615.2,286046999.9,N
1598410635.1,286046999.9,N
1598410636.0,286046999.9,N
1598410655.8,286046998.5,N
1598410675.6,286047001.0,N
1598410695.5,286047000.1,N
1598410715.3,286046999.8,N
1598410735.2,286046999.9,N
1598410755.9,286047001.0,N
1598410775.7,286047002.2,N
1598410795.6,286047002.1,N
